Hourly Weather Świdnik

Today, 9 August, Sunday

Time Temperature Precipitation Wind Pressure Humidity
00:00 +22°C° 0 mm 1 mps 749 mmHg 78%
01:00 +22°C° 0 mm 1 mps 749 mmHg 80%
02:00 +21°C° 0 mm 1 mps 749 mmHg 83%
03:00 +21°C° 0 mm 1 mps 748 mmHg 84%
04:00 +21°C° 0 mm 1 mps 748 mmHg 85%
05:00 +21°C° 0 mm 1 mps 748 mmHg 87%
06:00 +22°C° 0 mm 1 mps 748 mmHg 83%
07:00 +23°C° 0 mm 1 mps 748 mmHg 79%
08:00 +24°C° 0 mm 1 mps 748 mmHg 75%
09:00 +26°C° 0.2 mm 1 mps 748 mmHg 71%
10:00 +27°C° 0.2 mm 1 mps 748 mmHg 66%
11:00 +28°C° 0.2 mm 2 mps 748 mmHg 61%
12:00 +28°C° 0.1 mm 2 mps 748 mmHg 59%
13:00 +29°C° 0.1 mm 2 mps 748 mmHg 56%
14:00 +30°C° 0.1 mm 2 mps 748 mmHg 54%
15:00 +29°C° 0.5 mm 3 mps 747 mmHg 57%
16:00 +28°C° 0.5 mm 3 mps 747 mmHg 61%
17:00 +28°C° 0.5 mm 3 mps 747 mmHg 64%
18:00 +26°C° 0.2 mm 3 mps 747 mmHg 70%
19:00 +25°C° 0.2 mm 2 mps 747 mmHg 76%
20:00 +23°C° 0.2 mm 2 mps 747 mmHg 82%
21:00 +23°C° 0.1 mm 1 mps 747 mmHg 85%
22:00 +22°C° 0.1 mm 1 mps 747 mmHg 87%
23:00 +21°C° 0.1 mm 1 mps 747 mmHg 90%

Tomorrow, 10 August, Monday

Time Temperature Precipitation Wind Pressure Humidity
00:00 +21°C° 0 mm 1 mps 747 mmHg 90%
01:00 +21°C° 0 mm 1 mps 747 mmHg 90%
02:00 +20°C° 0 mm 1 mps 746 mmHg 91%
03:00 +20°C° 0 mm 1 mps 746 mmHg 91%
04:00 +20°C° 0 mm 1 mps 746 mmHg 92%
05:00 +19°C° 0 mm 1 mps 746 mmHg 93%
06:00 +20°C° 0 mm 1 mps 746 mmHg 89%
07:00 +22°C° 0 mm 1 mps 747 mmHg 85%
08:00 +23°C° 0 mm 2 mps 747 mmHg 82%
09:00 +24°C° 0.3 mm 2 mps 747 mmHg 76%
10:00 +25°C° 0.3 mm 2 mps 747 mmHg 70%
11:00 +27°C° 0.3 mm 2 mps 747 mmHg 65%
12:00 +27°C° 0.3 mm 2 mps 747 mmHg 62%
13:00 +28°C° 0.3 mm 3 mps 747 mmHg 59%
14:00 +28°C° 0.3 mm 3 mps 746 mmHg 56%
15:00 +28°C° 0.3 mm 3 mps 746 mmHg 57%
16:00 +28°C° 0.3 mm 2 mps 746 mmHg 58%
17:00 +28°C° 0.3 mm 2 mps 746 mmHg 59%
18:00 +26°C° 0.2 mm 2 mps 746 mmHg 64%
19:00 +25°C° 0.2 mm 1 mps 746 mmHg 70%
20:00 +23°C° 0.2 mm 1 mps 746 mmHg 76%
21:00 +23°C° 0 mm 1 mps 746 mmHg 78%
22:00 +22°C° 0 mm 1 mps 747 mmHg 80%
23:00 +21°C° 0 mm 1 mps 747 mmHg 82%

Day after tomorrow, 11 August, Tuesday

Time Temperature Precipitation Wind Pressure Humidity
00:00 +21°C° 0 mm 1 mps 747 mmHg 84%
01:00 +20°C° 0 mm 1 mps 747 mmHg 85%
02:00 +20°C° 0 mm 1 mps 747 mmHg 86%
03:00 +20°C° 0.1 mm 1 mps 747 mmHg 88%
04:00 +19°C° 0.1 mm 1 mps 747 mmHg 89%
05:00 +19°C° 0.1 mm 1 mps 747 mmHg 90%
06:00 +19°C° 0.1 mm 2 mps 747 mmHg 88%
07:00 +20°C° 0.1 mm 2 mps 747 mmHg 85%
08:00 +23°C° 0.1 mm 2 mps 747 mmHg 83%
09:00 +24°C° 0.3 mm 2 mps 747 mmHg 77%
10:00 +25°C° 0.3 mm 3 mps 747 mmHg 72%
11:00 +26°C° 0.3 mm 3 mps 747 mmHg 67%
12:00 +27°C° 0.7 mm 3 mps 747 mmHg 64%
13:00 +27°C° 0.7 mm 4 mps 747 mmHg 61%
14:00 +28°C° 0.7 mm 4 mps 747 mmHg 57%
15:00 +28°C° 0.4 mm 4 mps 747 mmHg 59%
16:00 +27°C° 0.4 mm 4 mps 747 mmHg 60%
17:00 +27°C° 0.4 mm 4 mps 747 mmHg 62%
18:00 +25°C° 0.1 mm 3 mps 747 mmHg 67%
19:00 +22°C° 0.1 mm 3 mps 747 mmHg 73%
20:00 +21°C° 0.1 mm 3 mps 747 mmHg 79%
21:00 +20°C° 0 mm 3 mps 748 mmHg 81%
22:00 +19°C° 0 mm 3 mps 748 mmHg 84%
23:00 +18°C° 0 mm 3 mps 748 mmHg 86%

12 August, Wednesday

Time Temperature Precipitation Wind Pressure Humidity
00:00 +17°C° 0 mm 3 mps 748 mmHg 86%
01:00 +16°C° 0 mm 3 mps 748 mmHg 87%
02:00 +16°C° 0 mm 3 mps 748 mmHg 87%
03:00 +14°C° 0 mm 3 mps 748 mmHg 88%
04:00 +13°C° 0 mm 3 mps 749 mmHg 89%
05:00 +13°C° 0 mm 3 mps 749 mmHg 91%
06:00 +14°C° 0 mm 3 mps 749 mmHg 87%
07:00 +16°C° 0 mm 3 mps 749 mmHg 84%
08:00 +17°C° 0 mm 3 mps 749 mmHg 81%
09:00 +18°C° 0 mm 3 mps 749 mmHg 75%
10:00 +20°C° 0 mm 3 mps 750 mmHg 68%
11:00 +21°C° 0 mm 3 mps 750 mmHg 62%
12:00 +22°C° 0 mm 3 mps 750 mmHg 59%
13:00 +22°C° 0 mm 3 mps 749 mmHg 56%
14:00 +24°C° 0 mm 3 mps 749 mmHg 53%
15:00 +24°C° 0 mm 3 mps 749 mmHg 54%
16:00 +24°C° 0 mm 3 mps 749 mmHg 55%
17:00 +24°C° 0 mm 3 mps 749 mmHg 56%
18:00 +21°C° 0 mm 3 mps 749 mmHg 62%
19:00 +19°C° 0 mm 3 mps 749 mmHg 68%
20:00 +18°C° 0 mm 2 mps 749 mmHg 74%
21:00 +17°C° 0 mm 2 mps 749 mmHg 76%
22:00 +16°C° 0 mm 2 mps 749 mmHg 78%
23:00 +15°C° 0 mm 2 mps 749 mmHg 80%

13 August, Thursday

Time Temperature Precipitation Wind Pressure Humidity
00:00 +15°C° 0 mm 2 mps 749 mmHg 81%
01:00 +14°C° 0 mm 2 mps 749 mmHg 81%
02:00 +14°C° 0 mm 2 mps 749 mmHg 81%
03:00 +13°C° 0 mm 1 mps 749 mmHg 82%
04:00 +13°C° 0 mm 1 mps 748 mmHg 84%
05:00 +12°C° 0 mm 1 mps 748 mmHg 85%
06:00 +14°C° 0 mm 1 mps 748 mmHg 81%
07:00 +15°C° 0 mm 1 mps 749 mmHg 76%
08:00 +18°C° 0 mm 1 mps 749 mmHg 71%
09:00 +18°C° 0 mm 2 mps 749 mmHg 66%
10:00 +20°C° 0 mm 2 mps 748 mmHg 61%
11:00 +21°C° 0 mm 2 mps 748 mmHg 56%
12:00 +23°C° 0 mm 2 mps 748 mmHg 54%
13:00 +23°C° 0 mm 2 mps 748 mmHg 51%
14:00 +24°C° 0 mm 2 mps 747 mmHg 49%
15:00 +24°C° 0 mm 2 mps 747 mmHg 49%
16:00 +24°C° 0 mm 1 mps 747 mmHg 50%
17:00 +24°C° 0 mm 1 mps 747 mmHg 50%
18:00 +22°C° 0 mm 1 mps 747 mmHg 55%
19:00 +21°C° 0 mm 1 mps 746 mmHg 60%
20:00 +19°C° 0 mm 1 mps 746 mmHg 66%
21:00 +18°C° 0 mm 1 mps 746 mmHg 67%
22:00 +18°C° 0 mm 1 mps 746 mmHg 69%
23:00 +16°C° 0 mm 1 mps 747 mmHg 71%

14 August, Friday

Time Temperature Precipitation Wind Pressure Humidity
00:00 +16°C° 0 mm 1 mps 746 mmHg 73%
01:00 +15°C° 0 mm 1 mps 746 mmHg 75%
02:00 +15°C° 0 mm 1 mps 746 mmHg 77%
03:00 +14°C° 0 mm 0 mps 746 mmHg 78%
04:00 +13°C° 0 mm 0 mps 746 mmHg 80%
05:00 +13°C° 0 mm 0 mps 746 mmHg 81%
06:00 +14°C° 0 mm 0 mps 746 mmHg 77%
07:00 +16°C° 0 mm 0 mps 746 mmHg 72%
08:00 +18°C° 0 mm 0 mps 746 mmHg 67%
09:00 +21°C° 0 mm 1 mps 747 mmHg 62%
10:00 +23°C° 0 mm 1 mps 747 mmHg 58%
11:00 +24°C° 0 mm 1 mps 747 mmHg 53%
12:00 +25°C° 0 mm 1 mps 746 mmHg 51%
13:00 +25°C° 0 mm 1 mps 746 mmHg 48%
14:00 +26°C° 0 mm 1 mps 746 mmHg 45%
15:00 +26°C° 0 mm 1 mps 746 mmHg 45%
16:00 +26°C° 0 mm 1 mps 746 mmHg 45%
17:00 +26°C° 0 mm 1 mps 745 mmHg 45%
18:00 +24°C° 0 mm 1 mps 745 mmHg 51%
19:00 +22°C° 0 mm 1 mps 745 mmHg 56%
20:00 +20°C° 0 mm 1 mps 745 mmHg 61%
21:00 +20°C° 0 mm 1 mps 746 mmHg 63%
22:00 +19°C° 0 mm 1 mps 746 mmHg 64%
23:00 +19°C° 0 mm 1 mps 746 mmHg 66%
Show more